Find STARLINK-37610

NORAD ID: 100029 Int'l Des: 2026-161B Owner: SPXS Country: US Constellation: starlink operational

現在のビュー

3D地球を読み込み中...

About STARLINK-37610

STARLINK-37610 (NORAD 100029) is a starlink constellation satellite (v2 mini) launched Jul 14, 2026 by SPXS of US. with a mass of 575.00 kg.

次回通過

Passes for default location (London). Set your location on the main map for personalized predictions.

高度履歴

Loading altitude history...

軌道要素

1 A0029U 26161B 26221.22196974 -.00455528 00000-0 -60358-2 0 9995
2 A0029 53.1590 196.4983 0000938 25.7463 334.3597 15.59170104 4105
Epoch: Aug 9, 2026 • Age: 27 hours

現在のステータス

高度 399.1 km
遠地点 / 近地点 N/A
速度 7.68 km/s
衛星直下点 51.84°N, 137.99°W
打ち上げ日 Jul 14, 2026
運用期間 27 days
タイプ internet

技術仕様

分類 Payload
質量 575.00 kg
乾燥質量 530.00 kg
総質量 575.00 kg
長さ 0.30 m
直径 4.10 m
スパン 29.00 m
形状 Box + pan
製造者 SPXS
バスタイプ Starlink V2MO
フェーズステータス In Orbit
所有者/国 SPXS/US

Most Searched